IRIDIUM 59 [P]

Last updated on March 2, 2019, 3:09 a.m. UTC

1 25275U 98019D   19060.87094732  .02951602 -15762-5  10743-2 0  9993
2 25275  86.5271  26.7150 0368715 163.2076 198.1793 15.53409683 95363

Satellite is not in orbit.